Temperature
14 14 14 14 14 14 14 15 14 15 14 14 14 14 14 14 14 14 14 14 14 14 14 14 14 15 15 15 15 15 15 16 16 16 16 16 16 16
14 14 14 14 14 14 14 14 14 14 14 13 13 13 13 13 13 13 13 14 14 14 14 14 14 14 14 14 15 15 15 15 15 15 15 15 15 15
13 13 13 14 14 14 14 14 14 14 14 13 13 12 13 13 13 13 13 13 13 13 13 13 13 13 13 13 14 14 14 14 14 14 14 14 14 14
13 13 13 13 13 14 14 14 14 14 13 12 12 12 12 12 12 12 12 12 12 12 12 12 12 12 12 13 13 13 13 13 13 14 14 14 14 14
13 13 13 13 13 13 13 13 13 13 13 12 11 11 11 11 11 11 11 11 12 12 12 12 12 12 12 12 12 12 13 13 13 13 13 13 13 13
12 12 12 12 12 13 12 13 13 12 12 12 11 11 11 11 11 11 11 11 11 11 11 11 11 11 11 12 12 12 12 12 12 12 13 13 13 13
12 12 12 12 12 12 12 12 12 12 11 11 11 11 11 11 12 12 12 11 11 11 11 11 10 10 10 11 11 11 11 11 11 12 12 12 12 13
12 12 12 12 12 12 12 12 11 11 12 12 12 12 11 12 12 12 12 12 12 11 11 11 10 10 10 10 10 10 10 10 11 11 11 11 12 12
11 11 11 11 11 11 11 11 11 11 12 12 12 12 11 11 12 12 12 13 12 11 11 11 10 9 9 9 9 9 9 9 10 10 10 10 10 11
11 11 11 11 11 11 11 11 11 11 11 11 11 11 11 11 11 11 11 11 11 10 11 11 10 9 9 8 8 8 9 9 9 9 9 9 10 10
11 11 11 11 11 11 11 11 11 11 11 11 11 11 11 11 11 11 11 11 11 10 10 11 10 10 9 8 8 8 8 8 8 8 8 8 9 8
11 11 11 11 11 11 11 11 11 11 11 11 11 10 10 10 10 10 11 12 11 10 10 10 10 10 9 9 8 8 8 7 7 7 7 7 8 7
11 11 11 11 11 11 11 11 11 11 10 10 10 10 10 9 9 10 10 11 11 10 9 10 10 10 10 9 9 8 8 7 7 7 7 6 6 6
12 11 11 11 11 11 11 11 11 11 10 10 10 10 10 9 9 9 9 9 9 8 8 9 9 9 10 10 9 9 8 7 7 7 6 6 6 5
11 11 11 11 11 11 11 11 10 10 10 10 10 10 9 8 8 8 8 8 8 8 7 8 8 9 9 9 9 8 8 8 7 6 6 6 6 6
11 11 10 10 10 10 10 10 10 10 10 10 10 9 8 8 8 8 8 8 8 7 7 7 7 8 8 8 8 8 8 8 7 6 6 6 6 6
10 10 10 9 9 9 9 9 9 9 9 9 9 9 9 9 9 9 9 9 9 8 8 7 7 7 7 8 8 8 8 7 7 6 6 6 6 6
10 10 10 10 10 10 10 9 9 9 9 9 9 9 9 9 9 9 9 9 9 9 9 8 8 8 8 7 7 7 7 7 7 6 6 6 6 6
10 11 11 10 10 10 10 10 9 9 9 9 9 9 9 9 9 9 9 9 9 9 8 8 8 9 10 10 7 7 6 6 6 6 6 6 6 6
11 11 11 11 11 10 10 10 9 9 9 9 9 9 9 9 9 9 9 9 9 9 9 8 8 8 8 9 8 7 6 6 6 5 6 6 6 5
10 11 11 11 11 10 10 10 10 9 9 9 9 9 9 9 9 9 9 8 9 9 9 8 8 7 7 7 8 8 7 6 5 5 5 5 5 5
11 11 11 11 11 11 10 10 10 9 9 9 9 9 9 9 9 9 9 9 9 9 9 8 7 7 8 8 8 8 8 7 6 6 5 5 4 4
11 11 11 11 11 10 10 10 10 10 9 9 9 9 9 9 10 9 9 9 9 9 9 9 8 8 8 8 8 8 8 7 7 7 6 5 5 4
Wind_Speed
13 13 13 13 12 12 12 12 11 8 7 5 3 4 4 6 7 7 8 10 11 12 13 13 14 14 14 15 15 15 15 14 13 12 11 9 4 3
10 12 12 12 11 11 11 10 10 8 5 3 4 5 6 6 7 9 10 13 13 14 15 16 16 15 15 16 16 16 16 15 14 14 13 12 10 8
9 10 11 11 9 9 9 9 9 8 6 6 6 6 6 7 7 8 10 11 13 17 18 18 18 17 17 17 17 17 16 15 15 14 13 12 11 9
8 7 7 6 6 6 5 6 6 8 11 13 7 6 6 8 8 9 9 11 13 17 18 18 18 17 17 17 16 16 16 16 15 14 13 12 11 9
5 5 5 3 3 2 3 5 6 8 11 13 9 6 6 8 10 10 12 10 12 15 16 16 16 16 16 16 15 15 15 15 15 14 13 12 11 10
3 3 3 1 3 5 6 8 9 11 11 11 10 8 8 10 10 11 11 10 10 11 11 13 15 17 17 16 16 16 16 16 16 16 15 14 13 12
2 4 5 7 8 7 8 9 10 10 10 9 9 10 10 10 10 10 11 10 9 9 9 9 9 10 12 16 17 17 18 18 18 18 17 16 15 14
3 5 7 8 12 13 13 10 8 8 10 9 9 10 10 9 8 9 10 10 8 6 7 8 8 9 9 12 14 16 18 18 19 19 19 19 17 15
4 5 6 8 10 11 12 12 11 9 5 6 11 11 10 9 8 8 6 7 8 6 6 8 8 9 9 12 14 15 16 17 18 19 19 19 18 14
5 7 8 9 9 10 11 10 9 9 7 9 11 10 10 8 6 8 9 9 8 4 4 6 7 7 9 10 12 13 13 14 15 16 18 20 20 16
7 7 8 10 9 9 12 12 11 10 14 17 15 13 13 10 4 6 7 7 8 6 3 5 6 6 7 7 9 11 11 9 10 12 16 19 21 17
7 7 7 10 9 6 11 12 13 11 12 12 11 10 9 7 3 1 4 6 8 7 4 2 4 5 5 5 5 4 4 7 8 9 11 13 17 13
10 9 8 11 9 4 6 10 12 13 12 11 9 8 8 7 6 6 6 3 5 7 4 1 3 3 3 5 4 5 6 6 5 4 5 5 7 9
9 9 10 12 10 6 6 12 13 12 10 9 8 8 8 8 8 9 10 11 10 8 4 3 4 2 3 3 3 3 4 6 7 7 8 4 3 2
7 13 15 16 14 10 13 13 11 9 9 8 8 8 9 9 9 8 9 8 8 7 6 4 4 4 4 4 4 4 4 5 7 8 8 8 8 8
12 14 14 11 10 13 12 9 8 7 7 8 8 9 9 8 7 7 7 7 8 8 7 6 5 4 5 4 4 4 5 5 7 8 9 8 7 8
15 13 12 12 12 11 10 8 8 8 7 8 9 9 8 8 7 6 5 6 7 8 8 6 6 5 5 4 3 4 5 5 6 7 9 8 8 8
16 14 13 12 12 12 11 10 9 9 9 9 9 8 8 8 8 7 6 6 6 6 5 4 5 6 6 4 4 5 5 6 7 7 9 9 10 9
14 13 13 12 12 11 10 10 9 9 9 9 8 8 8 9 8 7 6 6 6 5 5 3 1 1 2 2 4 1 4 6 8 8 9 9 10 10
12 13 13 12 12 11 11 10 10 10 10 9 9 8 8 8 8 8 7 6 5 5 5 4 2 2 3 3 2 1 4 4 7 8 9 9 10 9
13 12 13 13 12 11 11 10 11 10 10 9 9 9 9 8 8 7 6 5 3 4 4 4 4 0 3 4 3 1 2 5 3 5 7 9 11 10
14 13 13 13 12 12 11 11 11 11 11 10 10 9 8 8 8 8 8 8 6 4 4 5 5 4 4 2 4 4 3 3 8 13 9 4 8 9
14 12 12 13 13 12 12 12 12 11 11 11 10 10 9 8 7 7 7 6 6 5 4 4 4 4 3 2 4 5 5 6 6 6 4 13 12 13
Wind_Direction
268 260 255 254 251 246 241 236 231 220 199 165 128 86 98 101 99 99 98 93 96 97 96 93 86 81 77 75 72 68 64 60 57 54 52 50 58 208
275 270 263 255 249 244 240 234 226 223 195 139 119 112 99 95 88 92 93 95 94 98 97 93 86 80 76 74 71 68 64 61 59 57 55 53 52 51
286 277 270 262 250 241 236 229 217 204 161 122 117 118 110 106 102 99 96 93 93 95 96 92 88 83 79 75 72 69 66 62 58 55 52 49 47 42
298 296 288 272 246 238 224 212 196 175 148 135 130 129 126 124 117 111 104 99 98 95 95 94 92 88 82 77 72 68 64 60 55 50 46 40 35 29
318 321 309 277 226 181 157 145 139 134 133 134 132 133 136 138 130 120 114 115 110 112 105 100 96 91 84 78 73 68 63 57 51 44 36 27 18 10
347 4 12 49 135 123 116 116 119 120 125 129 133 144 147 150 140 133 127 124 122 120 110 112 109 98 86 77 72 68 62 57 51 44 36 26 16 5
58 55 57 77 94 103 113 116 121 124 131 137 146 153 152 158 148 137 126 124 123 131 132 130 122 103 93 82 73 66 62 57 51 43 36 29 23 17
112 94 96 95 96 91 89 90 106 136 146 149 154 150 148 145 138 142 145 140 129 127 123 111 104 92 82 78 69 65 60 54 47 39 32 26 23 24
122 115 107 108 116 112 100 91 77 70 107 140 134 133 132 130 141 138 113 113 107 128 136 121 114 103 97 86 79 71 64 56 47 39 30 22 17 18
128 122 120 126 125 129 127 116 99 72 78 105 109 107 107 104 105 107 112 115 115 114 144 131 130 123 117 106 99 88 77 66 55 44 32 19 5 353
141 132 134 131 127 139 134 127 115 94 71 75 77 81 69 56 52 144 157 157 135 123 127 134 138 138 128 124 125 127 113 98 80 60 42 23 2 348
148 138 121 130 138 156 149 141 132 126 121 111 102 108 103 95 46 132 174 159 142 127 106 133 143 159 137 113 93 98 111 134 134 101 64 36 7 3
166 161 135 128 137 135 167 150 140 138 135 132 127 123 117 112 105 82 52 78 119 110 111 148 132 143 133 129 99 61 38 26 30 82 90 71 23 7
172 153 131 133 131 130 129 125 136 148 146 147 142 133 124 110 94 84 71 65 63 78 56 48 93 74 109 108 87 68 58 37 17 6 3 14 15 44
139 111 126 133 129 116 122 136 157 158 155 153 142 131 117 110 111 107 100 98 92 85 84 68 97 91 77 81 68 41 25 31 20 3 351 353 1 360
123 121 129 137 125 118 141 161 171 159 160 149 138 132 131 141 147 146 146 144 127 112 98 82 71 78 91 79 61 47 22 8 7 3 343 338 353 360
145 146 148 148 147 152 158 158 154 154 156 145 144 147 151 153 148 139 139 138 130 130 132 131 118 92 65 28 51 28 7 359 0 354 331 340 344 357
159 159 160 160 159 159 159 159 162 161 157 152 155 159 158 154 151 152 154 136 126 121 120 134 166 176 173 126 38 2 354 356 348 346 340 341 340 353
173 165 165 165 162 161 162 161 159 153 155 159 161 160 156 156 159 159 151 141 132 124 117 116 93 298 258 160 138 60 353 345 339 344 346 341 339 345
186 172 170 167 165 164 163 159 152 153 165 166 161 160 162 163 165 167 161 155 145 140 134 124 96 36 11 5 354 151 164 347 348 342 341 338 337 329
194 179 174 171 169 168 164 159 156 161 168 171 164 166 169 169 170 171 150 124 179 158 139 112 88 75 271 268 277 26 137 175 227 308 328 338 341 336
193 183 177 174 173 172 168 167 164 164 168 181 170 174 178 178 172 174 165 173 187 164 142 131 155 212 242 305 326 332 330 311 230 223 242 287 341 338
192 185 177 178 178 177 175 175 173 170 175 182 176 179 184 185 183 180 179 187 182 173 185 188 189 210 247 278 298 313 327 320 322 318 281 202 220 240
Height
1448 1446 1445 1444 1444 1445 1446 1448 1451 1452 1454 1456 1457 1459 1460 1461 1463 1464 1465 1466 1468 1469 1470 1472 1474 1475 1476 1476 1477 1478 1479 1480 1482 1483 1485 1486 1488 1490
1444 1441 1439 1438 1438 1439 1440 1442 1445 1448 1450 1452 1454 1457 1458 1460 1462 1463 1464 1466 1467 1469 1470 1472 1473 1475 1475 1476 1476 1477 1477 1478 1479 1480 1481 1482 1483 1485
1439 1437 1434 1433 1433 1434 1435 1437 1439 1443 1446 1449 1452 1455 1458 1459 1462 1463 1465 1466 1467 1469 1471 1472 1473 1475 1475 1475 1476 1476 1476 1477 1478 1478 1478 1479 1480 1481
1436 1434 1431 1429 1429 1430 1431 1433 1436 1439 1442 1446 1451 1455 1457 1460 1462 1464 1465 1467 1468 1470 1472 1473 1475 1475 1476 1475 1476 1476 1476 1476 1476 1477 1477 1478 1478 1479
1434 1431 1429 1427 1426 1427 1429 1431 1434 1437 1441 1445 1450 1455 1458 1461 1463 1466 1467 1469 1471 1472 1474 1475 1476 1476 1476 1476 1476 1476 1475 1475 1476 1476 1476 1476 1477 1477
1433 1430 1428 1427 1426 1427 1428 1430 1433 1436 1441 1445 1450 1455 1459 1463 1465 1468 1470 1472 1474 1476 1476 1476 1477 1477 1477 1477 1477 1477 1476 1476 1475 1475 1475 1475 1475 1474
1433 1431 1429 1427 1427 1428 1430 1432 1435 1438 1443 1447 1452 1456 1460 1464 1467 1470 1471 1474 1476 1477 1478 1479 1479 1479 1479 1479 1478 1478 1477 1477 1476 1476 1475 1474 1473 1472
1433 1432 1431 1430 1430 1431 1433 1436 1440 1443 1447 1450 1454 1458 1461 1465 1468 1470 1473 1475 1477 1479 1480 1481 1481 1481 1480 1479 1479 1479 1478 1477 1477 1476 1475 1473 1472 1470
1434 1433 1434 1434 1435 1436 1438 1441 1444 1448 1451 1454 1456 1459 1462 1466 1469 1471 1472 1474 1476 1478 1480 1481 1482 1482 1481 1480 1480 1480 1479 1478 1477 1475 1474 1472 1470 1468
1434 1434 1435 1436 1439 1440 1442 1445 1448 1451 1454 1457 1459 1462 1464 1467 1469 1471 1472 1473 1476 1478 1480 1481 1482 1483 1482 1481 1481 1480 1479 1478 1477 1475 1473 1471 1468 1466
1435 1436 1437 1438 1441 1443 1445 1447 1450 1454 1456 1459 1461 1464 1466 1467 1470 1472 1474 1476 1477 1479 1480 1481 1482 1483 1483 1483 1482 1481 1480 1478 1476 1474 1471 1469 1467 1464
1434 1436 1438 1440 1442 1445 1448 1450 1452 1455 1458 1461 1464 1466 1467 1468 1470 1472 1474 1476 1477 1478 1479 1480 1482 1482 1483 1484 1483 1482 1481 1478 1475 1473 1470 1467 1465 1462
1434 1436 1437 1440 1443 1446 1449 1452 1454 1457 1460 1463 1465 1467 1468 1469 1471 1472 1473 1475 1477 1478 1479 1480 1481 1482 1482 1483 1483 1482 1481 1479 1477 1474 1471 1467 1463 1460
1433 1435 1436 1439 1443 1446 1449 1452 1455 1458 1462 1464 1466 1468 1469 1471 1471 1472 1473 1473 1475 1476 1477 1479 1481 1481 1482 1482 1483 1482 1481 1479 1477 1474 1472 1468 1464 1460
1431 1433 1435 1439 1442 1446 1449 1452 1456 1460 1462 1464 1466 1468 1470 1471 1472 1473 1474 1475 1476 1477 1478 1479 1481 1481 1482 1482 1482 1482 1481 1479 1476 1474 1471 1468 1465 1461
1428 1431 1435 1439 1442 1445 1449 1453 1457 1460 1462 1464 1466 1468 1470 1472 1474 1475 1477 1478 1479 1479 1478 1479 1480 1481 1482 1482 1482 1481 1480 1479 1477 1473 1470 1468 1465 1461
1426 1431 1435 1439 1442 1446 1450 1453 1456 1458 1461 1463 1465 1468 1470 1473 1475 1476 1478 1479 1479 1480 1480 1480 1480 1481 1480 1482 1482 1481 1480 1479 1476 1473 1469 1467 1464 1460
1426 1431 1434 1438 1442 1445 1449 1452 1454 1457 1460 1462 1465 1468 1470 1473 1475 1477 1478 1479 1479 1480 1481 1481 1481 1481 1481 1480 1481 1481 1480 1478 1475 1472 1469 1466 1463 1459
1425 1429 1433 1437 1440 1444 1447 1450 1453 1456 1459 1462 1465 1467 1470 1472 1474 1476 1478 1479 1479 1480 1480 1480 1480 1480 1480 1480 1479 1479 1478 1476 1474 1471 1468 1465 1461 1457
1423 1428 1431 1435 1439 1443 1446 1449 1452 1455 1458 1462 1464 1467 1469 1472 1474 1476 1477 1478 1479 1479 1480 1480 1480 1480 1480 1480 1480 1478 1476 1475 1473 1470 1467 1464 1460 1456
1421 1426 1430 1434 1438 1442 1445 1448 1451 1454 1458 1461 1464 1466 1469 1471 1473 1475 1476 1476 1478 1479 1479 1479 1478 1477 1478 1478 1479 1478 1476 1472 1470 1468 1465 1462 1458 1454
1419 1424 1428 1432 1436 1440 1444 1447 1450 1453 1456 1460 1463 1465 1468 1470 1472 1474 1475 1476 1477 1478 1478 1478 1477 1477 1478 1478 1477 1476 1475 1472 1469 1465 1462 1461 1458 1453
1417 1422 1426 1430 1435 1439 1442 1446 1449 1452 1455 1459 1462 1464 1467 1469 1471 1472 1474 1475 1476 1476 1477 1477 1478 1477 1477 1477 1475 1474 1472 1470 1468 1466 1463 1458 1455 1452